Wind_Speed
20 20 20 21 22 22 20 19 19 19 19 18 17 17 18 17 16 17 17 16 15 14 14 14 14 14 14 14 13 13 13 13 12 12 11 11 11 10 10 10 10 9 9 9 8 8 8 8 8
22 23 23 23 23 23 21 20 21 21 20 19 19 20 20 19 18 18 18 18 17 16 16 16 15 15 15 15 15 14 15 14 14 14 13 13 12 12 12 12 11 11 10 10 10 10 9 9 9
24 24 24 25 25 23 22 22 23 22 22 22 22 22 22 20 19 20 20 20 19 18 17 17 17 17 17 17 17 16 16 16 16 16 15 15 14 14 14 13 13 13 12 12 12 12 12 12 12
25 26 26 27 26 25 25 24 24 23 23 24 24 24 24 23 22 22 22 21 20 19 19 18 18 18 18 18 18 18 18 17 17 17 17 17 16 16 16 15 15 15 15 15 14 14 14 14 14
27 27 28 28 27 26 27 26 26 25 24 25 25 25 25 24 24 24 24 23 21 21 20 20 19 19 19 19 19 19 19 19 19 19 19 19 19 19 18 17 17 17 17 17 16 16 16 16 16
27 28 29 28 27 27 28 27 27 27 26 26 27 27 26 26 26 26 26 24 23 22 21 21 21 21 20 20 20 20 20 21 21 21 21 21 21 20 20 20 19 19 19 19 19 19 19 19 19
28 29 29 28 28 29 29 28 29 28 28 28 28 29 28 27 27 28 27 26 25 25 23 23 23 23 22 22 22 22 22 22 22 22 23 23 23 23 22 22 22 22 21 21 21 21 21 21 21
29 29 29 29 29 29 30 30 30 30 30 30 29 29 28 28 29 29 29 28 28 27 26 25 25 25 24 24 23 23 23 23 23 24 24 25 25 24 24 24 24 24 24 23 23 23 23 23 23
29 30 29 28 29 30 31 31 31 31 31 31 31 30 29 29 30 30 29 29 29 28 28 27 26 26 26 25 25 25 24 24 24 25 25 26 25 25 24 24 24 24 24 24 25 25 25 25 26
29 29 28 29 30 30 30 30 31 31 32 32 32 31 31 31 31 31 31 30 30 30 29 28 28 27 27 27 27 26 26 25 25 25 25 26 26 26 25 25 25 25 25 26 26 26 26 27 27
28 29 29 29 30 30 30 30 30 31 32 32 33 33 31 31 31 31 32 31 31 31 30 30 30 29 29 28 28 27 27 27 26 26 26 26 26 26 26 26 26 26 26 26 27 27 28 28 29
29 29 29 29 30 30 30 30 31 31 32 33 34 35 33 32 32 32 31 32 32 31 31 31 31 31 30 29 29 29 28 28 28 27 27 26 26 26 27 27 27 27 28 28 29 29 30 30 31
30 29 29 29 30 30 31 31 32 32 32 33 33 34 34 33 33 33 33 33 33 33 32 32 32 31 31 30 30 30 29 30 30 29 28 28 28 28 28 29 29 29 30 31 31 31 31 32 33
30 30 30 30 30 30 31 31 32 32 33 33 34 33 34 35 34 34 34 34 35 34 34 33 33 33 32 31 31 31 31 31 30 29 29 29 29 30 31 31 31 32 32 32 33 32 33 33 33
32 32 32 31 31 31 32 33 33 33 33 34 34 35 34 35 35 36 36 35 35 35 34 34 34 34 34 33 32 32 33 32 31 31 31 31 31 31 32 32 33 33 33 33 33 34 34 34 34
32 33 33 32 32 32 33 34 33 34 34 34 34 35 36 36 35 35 36 35 36 35 35 35 34 35 34 34 33 33 33 33 33 33 33 33 32 33 33 33 34 34 34 34 35 35 35 35 36
33 33 33 33 33 32 33 34 32 33 34 35 35 35 35 35 36 35 34 35 35 36 35 36 36 35 35 35 34 34 35 35 34 34 35 35 35 35 35 35 36 36 36 36 36 36 37 37 38
32 33 33 34 33 33 34 34 32 32 34 34 35 35 35 35 35 35 35 35 35 35 36 37 38 37 37 37 37 36 35 35 35 35 36 36 36 36 36 37 37 37 38 38 38 38 39 39 40
32 33 34 34 34 35 34 34 33 32 33 34 35 35 35 35 35 35 35 35 35 36 36 36 37 38 39 39 39 39 37 37 37 37 37 36 36 36 37 37 38 38 39 39 40 40 41 41 41
34 34 34 35 35 35 36 35 33 33 33 34 34 35 36 36 36 35 35 35 35 36 37 37 37 38 39 40 40 39 38 37 37 37 38 38 37 38 38 38 39 39 40 40 41 41 42 42 43
35 35 35 36 36 36 37 37 34 33 34 34 34 35 36 36 36 36 36 36 37 37 38 38 39 39 40 40 39 39 39 38 37 38 39 39 39 39 39 40 40 40 40 41 41 42 43 42 42
34 34 35 36 36 36 36 38 35 34 34 34 34 35 36 36 36 36 37 38 39 39 40 40 40 40 40 40 40 39 39 39 39 39 40 40 40 39 39 40 41 41 42 42 42 43 43 43 43
33 34 35 36 37 37 36 39 37 35 34 34 34 36 37 38 38 38 38 39 40 40 41 41 41 40 40 39 39 40 40 39 39 39 40 40 40 40 40 41 41 41 41 42 42 43 43 43 43
32 33 35 36 37 38 36 38 38 35 34 34 35 36 37 39 40 40 40 41 41 41 41 41 42 42 42 41 40 39 39 39 39 39 39 39 40 40 41 41 42 41 41 41 41 42 42 43 44
33 33 34 36 38 38 37 39 38 36 34 35 36 36 36 38 40 41 41 41 42 42 42 42 42 42 42 42 41 40 40 40 40 39 39 39 40 41 41 41 41 42 42 42 42 43 43 43 43
33 34 34 35 36 37 37 38 38 36 36 35 36 37 37 38 39 40 41 42 42 42 42 42 42 42 42 41 41 42 42 41 41 41 40 40 40 41 41 41 42 42 43 43 44 45 45 44 45
33 33 34 35 36 37 37 37 37 36 36 36 37 38 38 38 39 39 40 41 41 42 42 42 43 42 42 43 43 43 43 42 42 42 41 41 41 41 42 43 43 44 44 45 45 45 45 45 46
32 33 33 35 36 37 37 36 35 35 36 36 37 37 37 37 38 39 40 40 41 41 41 43 43 44 44 44 44 44 44 43 43 43 43 43 42 43 43 44 44 44 44 45 45 45 45 46 46
31 32 33 35 36 37 37 36 34 34 35 36 36 37 36 36 37 38 39 40 40 40 40 41 42 43 44 44 44 44 44 43 42 42 43 43 44 44 44 43 43 43 44 44 44 44 44 45 45
31 32 33 34 35 36 37 35 34 34 34 35 36 36 36 35 36 37 39 40 41 41 41 41 42 42 43 43 44 44 44 44 43 44 44 44 45 45 44 44 44 44 43 43 43 43 44 44 45
Wind_Direction
240 241 242 243 244 246 247 247 248 250 251 252 251 250 249 250 250 253 254 253 253 254 254 255 255 254 255 255 255 256 257 256 257 257 257 257 256 256 257 259 261 261 261 261 262 264 262 262 263
241 242 242 243 246 248 249 248 248 250 252 251 249 249 249 249 251 252 254 254 254 255 255 256 257 256 256 256 255 256 258 259 259 257 257 257 257 257 258 261 261 261 262 262 263 264 263 264 265
243 243 243 243 246 248 250 250 251 251 252 251 249 249 251 251 251 252 253 254 255 255 255 256 258 258 257 257 257 256 258 259 259 258 257 258 258 258 258 259 261 262 263 264 264 265 265 265 267
244 244 245 245 246 248 249 250 252 252 252 252 251 250 250 250 250 251 252 252 253 253 254 255 257 258 257 257 258 258 258 259 259 260 259 260 260 260 259 260 262 264 264 264 264 266 267 268 269
245 245 245 246 248 248 249 250 251 252 252 251 251 251 250 250 250 250 251 251 252 252 253 255 255 256 257 258 258 259 259 259 260 261 261 261 261 261 260 262 263 263 264 264 265 266 267 269 270
245 246 247 248 249 249 249 250 251 251 250 250 250 252 252 250 249 250 250 252 252 252 253 255 256 257 257 258 258 258 259 260 261 262 262 263 263 262 263 264 264 264 264 265 266 267 269 270 271
246 247 248 249 250 250 249 249 250 250 250 250 251 252 252 250 250 251 251 252 252 252 253 254 256 257 259 260 260 260 260 261 262 263 263 263 263 263 264 265 265 265 266 266 266 267 268 270 272
248 248 248 249 249 250 250 250 250 249 250 252 252 253 253 252 252 251 251 252 252 252 253 254 256 257 258 259 260 261 263 264 264 265 266 264 262 262 263 264 264 265 266 267 267 268 269 270 272
250 250 249 249 250 250 251 250 250 251 251 252 252 253 253 252 251 252 251 251 251 252 253 255 256 257 257 259 260 261 262 264 265 266 265 264 261 261 262 263 263 263 265 267 268 269 270 271 272
251 251 250 250 251 252 252 252 252 251 251 250 251 251 251 251 251 251 251 251 251 251 253 253 255 257 257 258 259 260 262 263 265 266 265 264 262 261 262 263 264 263 265 267 268 269 270 271 272
250 251 252 252 252 252 253 253 253 252 251 251 251 250 248 250 250 250 251 251 251 251 252 252 254 255 256 256 258 260 262 262 264 265 264 264 263 261 262 264 265 266 267 268 270 271 272 272 273
250 252 253 253 252 252 253 253 253 253 254 253 252 251 249 249 250 250 250 249 250 251 251 253 254 255 257 257 258 260 261 262 263 263 263 263 262 263 264 263 266 267 269 270 270 272 273 274 275
251 252 252 252 252 253 254 254 254 254 255 255 253 253 251 249 248 249 250 251 251 252 252 253 254 255 256 257 258 258 261 263 264 264 264 262 263 264 266 266 267 268 270 270 271 273 275 276 277
253 253 253 254 254 254 255 255 255 255 255 255 254 253 252 250 249 250 251 253 252 252 253 254 254 255 256 257 257 259 260 261 262 264 265 265 267 268 268 269 269 270 271 271 272 273 275 277 278
255 254 254 255 257 256 256 256 256 257 255 255 255 253 253 253 252 252 253 254 253 253 253 254 255 256 256 257 258 261 261 261 263 264 266 268 268 269 268 269 271 271 272 272 273 275 275 277 277
255 255 255 255 256 258 259 257 257 257 256 255 256 255 254 253 254 254 254 254 254 254 254 255 255 256 257 258 259 260 262 263 263 264 266 268 268 270 270 271 272 271 272 273 274 276 276 277 278
256 256 256 256 256 258 260 259 257 256 255 255 256 256 255 254 254 255 254 254 254 254 254 254 255 257 259 260 260 260 263 265 266 266 267 268 269 270 271 272 272 273 273 274 276 277 277 278 279
258 257 257 257 257 259 260 260 258 256 255 255 256 256 256 255 255 255 255 255 254 255 255 255 256 258 259 260 261 262 265 266 267 268 268 267 268 269 271 271 272 273 274 275 276 278 278 278 279
259 258 258 258 259 260 260 259 259 258 257 256 256 256 256 257 255 254 255 254 255 255 256 257 257 258 259 261 262 265 267 268 268 268 268 268 268 269 270 271 271 273 274 275 276 278 278 279 279
258 259 259 259 259 260 260 260 259 259 258 257 257 257 256 256 255 255 254 254 255 255 256 257 259 259 260 262 263 264 266 267 268 269 269 268 269 270 270 270 271 273 275 276 277 278 278 279 279
259 260 260 261 260 260 261 260 259 259 259 258 257 257 256 255 256 255 254 254 256 257 257 258 258 260 261 262 264 265 265 267 267 267 268 269 270 271 271 272 271 273 275 277 278 278 278 279 280
260 259 260 262 261 260 260 261 259 260 260 259 259 259 257 255 255 256 256 255 256 257 258 258 258 260 261 263 264 266 267 267 268 268 268 269 271 271 271 272 272 274 275 278 279 280 279 280 280
261 261 261 262 263 263 261 262 261 260 261 260 260 260 258 257 256 256 256 257 256 257 258 258 259 260 262 263 264 266 267 268 269 269 269 269 269 270 271 272 273 275 277 279 280 280 281 281 281
261 262 263 263 264 263 262 264 263 261 263 263 262 261 260 259 257 257 256 257 258 257 258 258 259 261 262 264 265 266 267 268 269 270 270 271 270 271 272 274 274 275 276 279 279 280 281 281 281
260 262 264 264 264 264 264 264 264 264 265 266 265 263 261 261 260 258 258 258 258 258 258 258 260 261 262 263 264 265 267 269 269 269 270 271 272 272 273 273 274 275 276 277 278 279 280 280 280
260 261 263 265 266 267 266 266 266 266 267 268 267 266 264 262 262 260 259 258 257 257 257 258 259 260 261 262 263 266 268 269 269 270 271 272 273 274 273 274 274 275 277 277 279 279 279 281 280
261 260 261 263 265 267 267 267 267 267 268 269 269 268 266 264 263 263 261 259 257 257 258 259 259 259 260 262 264 266 268 268 268 270 271 272 273 274 275 276 277 277 277 278 279 280 280 281 281
262 261 260 260 264 267 268 268 269 268 268 269 269 268 267 265 265 264 262 260 259 259 260 260 260 260 261 263 265 266 268 268 268 269 271 272 273 274 275 277 278 278 279 279 280 280 280 281 281
263 261 260 261 263 267 269 270 271 272 271 270 269 268 266 266 266 264 263 262 261 261 260 260 260 261 262 264 265 267 267 267 269 270 271 272 273 274 275 276 277 278 278 279 279 279 280 280 281
264 263 262 262 264 265 268 269 270 272 272 272 271 269 267 266 266 265 265 264 263 262 260 260 260 262 263 265 266 267 267 267 268 270 272 273 274 275 275 276 277 278 278 278 279 279 279 280 281
Height
5816 5818 5820 5822 5823 5824 5826 5829 5829 5830 5832 5833 5835 5835 5836 5837 5839 5842 5841 5841 5842 5843 5844 5845 5845 5846 5847 5847 5848 5848 5848 5849 5849 5850 5850 5850 5851 5851 5852 5852 5853 5853 5853 5853 5854 5854 5854 5855 5855
5812 5814 5816 5818 5819 5820 5823 5824 5825 5827 5828 5830 5831 5832 5833 5834 5836 5836 5837 5838 5839 5840 5841 5842 5843 5843 5844 5845 5845 5846 5846 5846 5847 5847 5848 5848 5849 5849 5850 5850 5851 5851 5852 5852 5852 5853 5853 5853 5854
5808 5809 5812 5813 5814 5817 5819 5820 5821 5823 5824 5825 5827 5828 5829 5831 5832 5832 5833 5834 5836 5837 5838 5839 5840 5840 5841 5842 5842 5843 5844 5844 5844 5845 5845 5846 5846 5847 5847 5848 5848 5849 5849 5850 5850 5851 5851 5851 5852
5803 5805 5807 5809 5810 5813 5815 5816 5816 5818 5819 5821 5822 5823 5825 5827 5828 5829 5829 5831 5832 5834 5835 5836 5836 5837 5838 5838 5839 5840 5840 5841 5841 5842 5842 5843 5844 5844 5845 5845 5846 5846 5847 5847 5848 5848 5849 5849 5849
5798 5800 5801 5803 5805 5808 5810 5811 5812 5813 5814 5816 5817 5818 5820 5822 5823 5824 5825 5827 5829 5830 5831 5832 5833 5834 5834 5835 5836 5836 5837 5837 5838 5838 5839 5839 5840 5841 5842 5842 5843 5843 5844 5844 5845 5845 5846 5846 5846
5793 5794 5796 5798 5800 5803 5804 5806 5807 5808 5809 5810 5812 5813 5815 5817 5818 5820 5821 5823 5824 5826 5827 5828 5829 5830 5831 5831 5832 5832 5833 5833 5834 5835 5835 5836 5836 5837 5838 5839 5839 5840 5841 5841 5841 5842 5842 5843 5843
5787 5789 5790 5793 5795 5797 5798 5799 5801 5802 5804 5805 5806 5808 5809 5811 5813 5815 5816 5818 5820 5821 5823 5824 5824 5826 5826 5827 5828 5828 5829 5829 5830 5830 5831 5831 5832 5833 5833 5834 5835 5836 5836 5837 5837 5838 5838 5838 5839
5781 5783 5784 5787 5789 5790 5791 5793 5795 5797 5798 5800 5801 5802 5804 5806 5807 5809 5811 5813 5814 5816 5817 5819 5820 5821 5822 5822 5823 5824 5824 5825 5825 5825 5826 5826 5827 5828 5829 5830 5830 5831 5832 5832 5833 5833 5833 5834 5834
5774 5777 5779 5781 5782 5783 5784 5787 5789 5790 5792 5793 5794 5796 5799 5800 5801 5803 5805 5807 5809 5810 5812 5813 5814 5815 5816 5817 5818 5819 5819 5820 5820 5820 5819 5820 5821 5822 5824 5824 5825 5826 5827 5827 5828 5828 5828 5829 5829
5768 5770 5774 5775 5775 5776 5778 5781 5782 5784 5786 5787 5788 5790 5791 5793 5795 5797 5799 5801 5802 5804 5806 5807 5808 5809 5811 5812 5813 5813 5814 5814 5814 5814 5814 5814 5815 5817 5818 5819 5820 5821 5821 5822 5822 5823 5823 5823 5823
5762 5764 5767 5767 5769 5770 5772 5774 5775 5777 5778 5780 5781 5783 5785 5787 5789 5791 5793 5795 5796 5798 5800 5801 5803 5804 5805 5806 5807 5808 5808 5809 5809 5808 5808 5809 5810 5812 5813 5814 5814 5815 5816 5817 5817 5817 5817 5817 5817
5756 5758 5760 5761 5763 5764 5766 5767 5769 5770 5772 5773 5774 5776 5778 5781 5782 5784 5786 5788 5789 5791 5793 5795 5796 5798 5799 5800 5801 5802 5803 5803 5804 5804 5804 5804 5805 5806 5807 5808 5809 5810 5810 5811 5811 5811 5811 5811 5811
5750 5752 5753 5755 5756 5758 5759 5760 5761 5763 5765 5766 5767 5769 5771 5774 5776 5778 5780 5781 5783 5785 5787 5788 5790 5791 5793 5794 5795 5796 5796 5798 5798 5799 5799 5799 5800 5801 5802 5802 5803 5803 5804 5804 5804 5804 5804 5804 5804
5744 5745 5747 5748 5750 5751 5752 5753 5754 5757 5758 5759 5760 5762 5764 5766 5769 5770 5773 5775 5777 5778 5780 5782 5783 5785 5786 5788 5789 5789 5790 5791 5792 5793 5793 5793 5794 5795 5796 5796 5797 5797 5797 5797 5797 5797 5797 5796 5796
5737 5739 5740 5742 5743 5744 5745 5746 5748 5749 5750 5751 5753 5755 5757 5759 5761 5763 5765 5767 5769 5771 5773 5775 5777 5778 5779 5781 5782 5783 5784 5784 5785 5786 5786 5787 5787 5788 5789 5789 5789 5790 5790 5790 5790 5789 5789 5789 5788
5730 5731 5733 5735 5736 5737 5739 5739 5741 5741 5743 5744 5746 5748 5750 5752 5754 5756 5758 5760 5762 5764 5766 5768 5770 5771 5772 5774 5775 5776 5776 5777 5778 5779 5779 5780 5780 5781 5781 5782 5782 5782 5782 5782 5782 5782 5781 5781 5780
5723 5724 5726 5728 5729 5729 5729 5731 5734 5734 5735 5737 5739 5740 5742 5745 5747 5749 5751 5753 5754 5757 5759 5761 5762 5764 5765 5766 5767 5768 5769 5770 5771 5771 5772 5773 5773 5773 5774 5774 5774 5774 5774 5774 5774 5773 5773 5772 5771
5716 5717 5718 5719 5721 5721 5721 5722 5725 5726 5728 5729 5731 5733 5735 5738 5740 5741 5743 5745 5747 5749 5751 5753 5755 5756 5758 5759 5760 5761 5761 5762 5763 5764 5764 5765 5765 5766 5766 5766 5766 5766 5765 5765 5765 5764 5763 5763 5762
5708 5709 5710 5712 5712 5712 5713 5715 5717 5718 5720 5722 5724 5726 5728 5730 5732 5734 5736 5738 5740 5742 5744 5745 5747 5748 5750 5751 5752 5752 5753 5754 5755 5755 5756 5756 5757 5757 5757 5757 5757 5757 5756 5756 5755 5755 5754 5753 5752
5699 5701 5702 5703 5704 5704 5705 5707 5709 5710 5712 5714 5716 5718 5720 5722 5724 5726 5728 5730 5732 5734 5736 5737 5739 5740 5741 5742 5743 5744 5745 5745 5746 5747 5747 5748 5748 5748 5748 5748 5748 5747 5747 5746 5745 5745 5744 5743 5741
5692 5693 5694 5695 5696 5696 5697 5698 5701 5703 5704 5706 5708 5710 5712 5714 5716 5718 5720 5722 5724 5725 5727 5728 5730 5731 5733 5734 5735 5736 5736 5737 5737 5738 5739 5739 5738 5738 5738 5738 5738 5737 5737 5736 5735 5734 5734 5733 5731
5684 5685 5686 5686 5687 5688 5689 5689 5694 5696 5697 5699 5701 5702 5703 5706 5708 5710 5711 5713 5715 5717 5718 5720 5721 5722 5724 5725 5726 5727 5728 5728 5729 5729 5729 5729 5729 5728 5728 5728 5728 5728 5727 5726 5725 5724 5723 5722 5721
5676 5677 5677 5678 5677 5679 5681 5680 5686 5687 5689 5691 5693 5694 5695 5697 5699 5701 5702 5704 5706 5708 5709 5710 5712 5713 5715 5715 5717 5718 5718 5719 5719 5719 5720 5720 5719 5719 5718 5718 5718 5717 5717 5716 5715 5713 5712 5711 5710
5668 5669 5669 5669 5668 5670 5674 5672 5675 5679 5682 5683 5684 5685 5686 5688 5690 5691 5693 5695 5696 5698 5699 5701 5702 5704 5705 5706 5707 5708 5709 5710 5710 5710 5710 5710 5710 5709 5709 5708 5708 5707 5706 5705 5704 5703 5702 5700 5699
5660 5661 5661 5660 5660 5662 5665 5663 5667 5672 5673 5674 5675 5676 5677 5678 5679 5681 5683 5685 5686 5688 5690 5691 5693 5694 5695 5696 5697 5698 5699 5700 5700 5700 5700 5700 5700 5699 5698 5698 5697 5696 5696 5695 5694 5693 5691 5690 5688
5652 5653 5654 5654 5653 5654 5655 5655 5660 5663 5664 5664 5665 5666 5668 5668 5669 5671 5672 5674 5676 5678 5679 5681 5683 5684 5685 5687 5688 5688 5689 5689 5690 5690 5690 5690 5690 5689 5688 5687 5687 5686 5685 5683 5682 5681 5680 5678 5677
5644 5644 5646 5645 5644 5645 5646 5648 5651 5653 5654 5655 5656 5656 5658 5658 5659 5661 5662 5663 5665 5667 5669 5671 5672 5674 5675 5676 5677 5678 5678 5679 5679 5679 5679 5679 5679 5679 5678 5677 5676 5675 5674 5672 5671 5670 5668 5667 5665
5636 5636 5637 5636 5636 5636 5638 5640 5642 5644 5644 5646 5646 5647 5647 5648 5649 5650 5651 5653 5654 5656 5658 5659 5661 5663 5664 5666 5667 5667 5668 5668 5668 5669 5669 5668 5668 5668 5667 5666 5665 5663 5662 5661 5659 5658 5657 5655 5654
5628 5628 5628 5628 5628 5629 5629 5634 5634 5634 5635 5636 5636 5637 5637 5638 5639 5639 5640 5642 5644 5646 5647 5649 5650 5652 5653 5654 5655 5656 5657 5657 5657 5658 5658 5657 5657 5656 5655 5654 5653 5652 5650 5649 5648 5646 5645 5643 5642
5619 5620 5620 5621 5621 5621 5621 5626 5625 5625 5625 5626 5626 5627 5627 5628 5628 5629 5630 5631 5633 5635 5636 5638 5639 5641 5642 5643 5644 5645 5645 5646 5646 5646 5646 5646 5645 5644 5643 5642 5641 5639 5638 5637 5636 5634 5633 5631 5630